Location: Newark
(52.4787°S, 179.0532°W)
Time: 18:42:04
(UTC+00:00)

A-11 Canister half - All Passes

Search period start: 15 November 2019 00:00
Search period end: 25 November 2019 00:00
Orbit: 1527 x 1682 km, 47.3° (Epoch: 14 November)

Date Brightness Start Highest point End Pass type
(mag) Time Alt. Az. Time Alt. Az. Time Alt. Az.
15 Nov - 11:01:24 10° NNE 11:07:05 18° NE 11:12:51 10° E visible
15 Nov - 13:01:15 10° NW 13:10:04 44° NNE 13:19:12 10° E visible
15 Nov - 15:04:42 10° WNW 15:14:14 65° N 15:24:06 10° E visible
15 Nov - 17:09:12 10° W 17:18:44 57° NNW 17:28:30 10° ENE daylight
15 Nov - 19:14:16 10° W 19:22:30 31° NW 19:30:51 10° NNE daylight
16 Nov - 10:40:14 10° NNE 10:45:34 17° NE 10:51:00 10° E visible
16 Nov - 12:39:45 10° NW 12:48:29 43° NNE 12:57:32 10° E visible
16 Nov - 14:43:07 10° WNW 14:52:36 65° N 15:02:27 10° E visible
16 Nov - 16:47:35 10° W 16:57:07 58° NNW 17:06:54 10° ENE daylight
16 Nov - 18:52:35 10° W 19:00:55 32° NW 19:09:24 10° NNE daylight
17 Nov - 10:19:05 10° NNE 10:24:03 16° NE 10:29:06 10° E visible
17 Nov - 12:18:15 10° NW 12:26:54 42° NNE 12:35:51 10° E visible
17 Nov - 14:21:31 10° WNW 14:30:59 64° N 14:40:48 10° E visible
17 Nov - 16:25:59 10° W 16:35:29 59° NNW 16:45:17 10° ENE daylight
17 Nov - 18:30:56 10° W 18:39:21 33° NW 18:47:55 10° NNE daylight
18 Nov - 09:57:59 10° NNE 10:02:33 15° NE 10:07:10 10° E visible
18 Nov - 11:56:46 10° NNW 12:05:20 40° NNE 12:14:11 10° E visible
18 Nov - 13:59:56 10° WNW 14:09:22 64° N 14:19:08 10° E visible
18 Nov - 16:04:22 10° W 16:13:52 60° NNW 16:23:39 10° ENE daylight
18 Nov - 18:09:16 10° W 18:17:46 34° NW 18:26:26 10° NNE daylight
18 Nov - 20:18:52 10° WNW 20:20:23 10° WNW 20:21:54 10° NW daylight
19 Nov - 09:36:58 10° NNE 09:41:03 14° NE 09:45:11 10° E visible
19 Nov - 11:35:17 10° NNW 11:43:46 39° NE 11:52:31 10° E visible
19 Nov - 13:38:22 10° WNW 13:47:45 63° N 13:57:29 10° E visible
19 Nov - 15:42:45 10° W 15:52:15 61° NNW 16:02:02 10° ENE daylight
19 Nov - 17:47:37 10° W 17:56:11 35° NW 18:04:56 10° NNE daylight
19 Nov - 19:56:13 10° WNW 19:58:52 11° WNW 20:01:31 10° NW daylight
20 Nov - 09:16:01 10° NNE 09:19:33 13° NE 09:23:07 10° ENE visible
20 Nov - 11:13:49 10° NNW 11:22:12 38° NE 11:30:49 10° E visible
20 Nov - 13:16:47 10° WNW 13:26:08 62° NNE 13:35:49 10° E visible
20 Nov - 15:21:09 10° W 15:30:38 61° NNW 15:40:24 10° ENE daylight
20 Nov - 17:25:58 10° W 17:34:36 37° NW 17:43:26 10° NNE daylight
20 Nov - 19:33:58 10° WNW 19:37:21 12° WNW 19:40:45 10° NW daylight
21 Nov - 08:55:13 10° NE 08:58:03 12° ENE 09:00:55 10° ENE visible
21 Nov - 10:52:21 10° NNW 11:00:38 36° NE 11:09:09 10° E visible
21 Nov - 12:55:12 10° WNW 13:04:31 62° NNE 13:14:10 10° E visible
21 Nov - 14:59:32 10° W 15:09:00 62° NNW 15:18:46 10° ENE visible
21 Nov - 17:04:20 10° W 17:13:01 38° NW 17:21:55 10° NNE daylight
21 Nov - 19:11:52 10° W 19:15:49 13° NW 19:19:49 10° NNW daylight
22 Nov - 08:34:40 10° NE 08:36:33 11° ENE 08:38:27 10° ENE visible
22 Nov - 10:30:54 10° NNW 10:39:05 35° NE 10:47:28 10° E visible
22 Nov - 12:33:38 10° WNW 12:42:55 61° NNE 12:52:31 10° E visible
22 Nov - 14:37:56 10° W 14:47:23 63° N 14:57:08 10° ENE visible
22 Nov - 16:42:41 10° W 16:51:26 39° NW 17:00:23 10° NNE daylight
22 Nov - 18:49:51 10° W 18:54:18 14° NW 18:58:47 10° NNW daylight
23 Nov - 10:09:27 10° NNW 10:17:31 34° NE 10:25:47 10° E visible
23 Nov - 12:12:04 10° WNW 12:21:18 60° NNE 12:30:52 10° E visible
23 Nov - 14:16:20 10° W 14:25:46 63° N 14:35:30 10° ENE visible
23 Nov - 16:21:03 10° W 16:29:51 40° NNW 16:38:51 10° NNE daylight
23 Nov - 18:27:55 10° W 18:32:46 15° NW 18:37:41 10° NNW daylight
24 Nov - 09:48:01 10° NNW 09:55:58 32° NE 10:04:06 10° E visible
24 Nov - 11:50:30 10° WNW 11:59:42 59° NNE 12:09:12 10° E visible
24 Nov - 13:54:43 10° W 14:04:08 64° N 14:13:51 10° ENE visible
24 Nov - 15:59:25 10° W 16:08:15 41° NNW 16:17:19 10° NNE daylight
24 Nov - 18:06:02 10° W 18:11:14 16° NW 18:16:31 10° NNW daylight
